STARLINK-1758 (46380 NORAD) Tracking and Keplerian Element Data

This shows tracking and keplerian element data for the satellite.

Feedback or suggestion? Click here.




ElementValue
Catalog46380
NameSTARLINK-1758
Epoch Orbit176
Epoch Day26.91667824
Epoch Year2021
RAAN101.3581
Inclination53.0592
Eccentricity0.0001007
Argument of Perigee87.4913
Mean Anonmoly291.1018
Mean Motion15.06405405
Decay Rate-0.00022185
L11 46380U 20062BH 21026.91667824 -.00022185 00000-0 -14749-2 0 9992
L22 46380 53.0592 101.3581 0001007 87.4913 291.1018 15.06405405 1762

Live tracking and technical data element details for STARLINK-1758 (NORAD 46380). STARLINK-1758 can be tracked NOW for your location showing map with azimuth and elevation plus other details from your city location.

Track the satellite on the map from your city or location and see movement details for azimuth, elevation, latitude, longitude, range, height, and movement on the map or in text.







IsCatalogInMostPopularTable: catalog: 46380, numindb: 78
Update: records affected: 1



GetName: 46380 STARLINK-1758

Hit Count: updated at: Thu, 28 Jan 2021 11:01:18 GMT